• In Italy
  • List of Countries
  • For 7 days
  • Water Temperature
  • Satellite Maps
  • Weather Map
  • Weather Widgets
  • user-avatar
    Login

    Hourly Weather Eger

    Today, 15 August, Wednesday

    Time Temperature Precipitation Wind Pressure Humidity
    00:00 +21°C° 0 mm 1 mps 742 mmHg 85%
    01:00 +21°C° 0 mm 1 mps 742 mmHg 88%
    02:00 +20°C° 0.1 mm 1 mps 743 mmHg 89%
    03:00 +20°C° 0.1 mm 1 mps 743 mmHg 90%
    04:00 +20°C° 0.1 mm 1 mps 743 mmHg 90%
    05:00 +20°C° 0.2 mm 2 mps 743 mmHg 87%
    06:00 +21°C° 0.2 mm 2 mps 743 mmHg 84%
    07:00 +23°C° 0 mm 2 mps 744 mmHg 79%
    08:00 +24°C° 0.2 mm 2 mps 744 mmHg 74%
    09:00 +25°C° 0.2 mm 2 mps 744 mmHg 69%
    10:00 +26°C° 0.2 mm 2 mps 744 mmHg 65%
    11:00 +26°C° 1.2 mm 2 mps 744 mmHg 65%
    12:00 +27°C° 1.2 mm 2 mps 744 mmHg 65%
    13:00 +27°C° 1.2 mm 2 mps 744 mmHg 64%
    14:00 +27°C° 0.7 mm 2 mps 744 mmHg 64%
    15:00 +27°C° 0.7 mm 2 mps 744 mmHg 64%
    16:00 +27°C° 0.7 mm 3 mps 744 mmHg 63%
    17:00 +26°C° 0.5 mm 2 mps 744 mmHg 68%
    18:00 +25°C° 0.5 mm 2 mps 744 mmHg 72%
    19:00 +23°C° 0.5 mm 2 mps 744 mmHg 76%
    20:00 +23°C° 0.1 mm 2 mps 745 mmHg 78%
    21:00 +21°C° 0.1 mm 2 mps 745 mmHg 79%
    22:00 +21°C° 0.1 mm 2 mps 745 mmHg 81%
    23:00 +20°C° 0 mm 2 mps 745 mmHg 81%

    Tomorrow, 16 August, Thursday

    Time Temperature Precipitation Wind Pressure Humidity
    00:00 +20°C° 0 mm 2 mps 745 mmHg 82%
    01:00 +19°C° 0 mm 2 mps 745 mmHg 82%
    02:00 +19°C° 0 mm 2 mps 745 mmHg 83%
    03:00 +19°C° 0 mm 2 mps 745 mmHg 83%
    04:00 +18°C° 0 mm 2 mps 745 mmHg 84%
    05:00 +19°C° 0 mm 3 mps 745 mmHg 80%
    06:00 +20°C° 0 mm 3 mps 745 mmHg 76%
    07:00 +22°C° 0 mm 4 mps 746 mmHg 72%
    08:00 +23°C° 0 mm 4 mps 746 mmHg 65%
    09:00 +26°C° 0 mm 4 mps 746 mmHg 59%
    10:00 +28°C° 0 mm 4 mps 746 mmHg 52%
    11:00 +29°C° 0 mm 4 mps 745 mmHg 49%
    12:00 +29°C° 0 mm 3 mps 745 mmHg 46%
    13:00 +30°C° 0 mm 3 mps 745 mmHg 43%
    14:00 +30°C° 0 mm 3 mps 745 mmHg 43%
    15:00 +30°C° 0 mm 3 mps 744 mmHg 43%
    16:00 +30°C° 0 mm 3 mps 744 mmHg 44%
    17:00 +29°C° 0 mm 2 mps 744 mmHg 50%
    18:00 +27°C° 0 mm 2 mps 744 mmHg 56%
    19:00 +25°C° 0 mm 2 mps 744 mmHg 62%
    20:00 +24°C° 0 mm 2 mps 744 mmHg 67%
    21:00 +23°C° 0 mm 2 mps 744 mmHg 72%
    22:00 +21°C° 0 mm 3 mps 744 mmHg 77%
    23:00 +21°C° 0 mm 2 mps 744 mmHg 79%

    Day after tomorrow, 17 August, Friday

    Time Temperature Precipitation Wind Pressure Humidity
    00:00 +20°C° 0 mm 2 mps 744 mmHg 82%
    01:00 +20°C° 0 mm 2 mps 744 mmHg 85%
    02:00 +19°C° 0 mm 2 mps 744 mmHg 86%
    03:00 +19°C° 0 mm 2 mps 744 mmHg 87%
    04:00 +18°C° 0 mm 2 mps 744 mmHg 88%
    05:00 +19°C° 0 mm 2 mps 744 mmHg 83%
    06:00 +21°C° 0 mm 2 mps 745 mmHg 78%
    07:00 +23°C° 0 mm 2 mps 745 mmHg 72%
    08:00 +25°C° 0 mm 2 mps 745 mmHg 65%
    09:00 +27°C° 0 mm 2 mps 745 mmHg 57%
    10:00 +29°C° 0 mm 1 mps 745 mmHg 49%
    11:00 +30°C° 0 mm 1 mps 744 mmHg 46%
    12:00 +31°C° 0 mm 1 mps 744 mmHg 42%
    13:00 +32°C° 0 mm 1 mps 744 mmHg 39%
    14:00 +32°C° 0 mm 1 mps 744 mmHg 39%
    15:00 +31°C° 0 mm 1 mps 744 mmHg 39%
    16:00 +31°C° 0 mm 1 mps 743 mmHg 39%
    17:00 +30°C° 0 mm 1 mps 743 mmHg 43%
    18:00 +28°C° 0 mm 1 mps 744 mmHg 48%
    19:00 +26°C° 0 mm 1 mps 744 mmHg 52%
    20:00 +26°C° 0 mm 1 mps 744 mmHg 55%
    21:00 +25°C° 0 mm 1 mps 744 mmHg 58%
    22:00 +24°C° 0 mm 1 mps 744 mmHg 60%
    23:00 +24°C° 0 mm 1 mps 744 mmHg 63%

    18 August, Saturday

    Time Temperature Precipitation Wind Pressure Humidity
    00:00 +23°C° 0 mm 1 mps 744 mmHg 65%
    01:00 +23°C° 0 mm 1 mps 744 mmHg 67%
    02:00 +22°C° 0 mm 1 mps 745 mmHg 69%
    03:00 +22°C° 0 mm 1 mps 745 mmHg 71%
    04:00 +21°C° 0 mm 1 mps 745 mmHg 73%
    05:00 +22°C° 0 mm 1 mps 745 mmHg 71%
    06:00 +23°C° 0 mm 1 mps 745 mmHg 68%
    07:00 +24°C° 0 mm 1 mps 746 mmHg 65%
    08:00 +27°C° 0 mm 1 mps 746 mmHg 59%
    09:00 +29°C° 0 mm 1 mps 746 mmHg 53%
    10:00 +29°C° 0 mm 0 mps 746 mmHg 46%
    11:00 +32°C° 0 mm 1 mps 746 mmHg 42%
    12:00 +32°C° 0 mm 1 mps 746 mmHg 38%
    13:00 +33°C° 0 mm 1 mps 745 mmHg 34%
    14:00 +33°C° 0 mm 1 mps 745 mmHg 35%
    15:00 +33°C° 0 mm 1 mps 745 mmHg 36%
    16:00 +32°C° 0 mm 1 mps 745 mmHg 36%
    17:00 +31°C° 0 mm 1 mps 745 mmHg 40%
    18:00 +29°C° 0 mm 1 mps 745 mmHg 43%
    19:00 +27°C° 0 mm 1 mps 745 mmHg 47%
    20:00 +27°C° 0 mm 1 mps 746 mmHg 50%
    21:00 +26°C° 0 mm 2 mps 746 mmHg 54%
    22:00 +25°C° 0 mm 2 mps 746 mmHg 57%
    23:00 +25°C° 0 mm 2 mps 746 mmHg 61%

    19 August, Sunday

    Time Temperature Precipitation Wind Pressure Humidity
    00:00 +24°C° 0 mm 2 mps 746 mmHg 65%
    01:00 +23°C° 0 mm 2 mps 746 mmHg 69%
    02:00 +23°C° 0 mm 2 mps 746 mmHg 70%
    03:00 +21°C° 0 mm 2 mps 746 mmHg 72%
    04:00 +21°C° 0 mm 2 mps 747 mmHg 74%
    05:00 +23°C° 0 mm 2 mps 747 mmHg 70%
    06:00 +24°C° 0 mm 2 mps 747 mmHg 66%
    07:00 +25°C° 0 mm 2 mps 747 mmHg 62%
    08:00 +27°C° 0 mm 2 mps 747 mmHg 55%
    09:00 +29°C° 0 mm 3 mps 747 mmHg 48%
    10:00 +31°C° 0 mm 3 mps 748 mmHg 41%
    11:00 +33°C° 0 mm 3 mps 747 mmHg 38%
    12:00 +32°C° 0 mm 2 mps 747 mmHg 36%
    13:00 +34°C° 0 mm 2 mps 747 mmHg 33%
    14:00 +34°C° 0 mm 2 mps 747 mmHg 34%
    15:00 +34°C° 0 mm 2 mps 747 mmHg 35%
    16:00 +32°C° 0 mm 2 mps 747 mmHg 36%
    17:00 +31°C° 0 mm 2 mps 747 mmHg 41%
    18:00 +29°C° 0 mm 2 mps 747 mmHg 46%
    19:00 +27°C° 0 mm 2 mps 747 mmHg 52%
    20:00 +26°C° 0 mm 3 mps 747 mmHg 57%
    21:00 +25°C° 0 mm 3 mps 747 mmHg 62%
    22:00 +24°C° 0 mm 3 mps 748 mmHg 67%
    23:00 +24°C° 0 mm 3 mps 748 mmHg 70%

    20 August, Monday

    Time Temperature Precipitation Wind Pressure Humidity
    00:00 +22°C° 0 mm 3 mps 748 mmHg 72%
    01:00 +21°C° 0 mm 3 mps 748 mmHg 75%
    02:00 +21°C° 0 mm 3 mps 748 mmHg 76%
    03:00 +20°C° 0 mm 3 mps 748 mmHg 77%
    04:00 +20°C° 0 mm 2 mps 748 mmHg 78%
    05:00 +21°C° 0 mm 3 mps 748 mmHg 73%
    06:00 +22°C° 0 mm 3 mps 748 mmHg 67%
    07:00 +24°C° 0 mm 3 mps 748 mmHg 61%
    08:00 +26°C° 0 mm 3 mps 748 mmHg 54%
    09:00 +28°C° 0 mm 3 mps 748 mmHg 47%
    10:00 +30°C° 0 mm 3 mps 748 mmHg 39%
    11:00 +30°C° 0 mm 3 mps 748 mmHg 37%
    12:00 +31°C° 0 mm 3 mps 748 mmHg 34%
    13:00 +33°C° 0 mm 3 mps 748 mmHg 32%
    14:00 +33°C° 0 mm 3 mps 747 mmHg 32%
    15:00 +32°C° 0 mm 2 mps 747 mmHg 33%
    16:00 +32°C° 0 mm 2 mps 747 mmHg 33%
    17:00 +30°C° 0 mm 2 mps 747 mmHg 38%
    18:00 +28°C° 0 mm 2 mps 747 mmHg 44%
    19:00 +26°C° 0 mm 2 mps 747 mmHg 49%
    20:00 +25°C° 0 mm 2 mps 747 mmHg 54%
    21:00 +24°C° 0 mm 2 mps 747 mmHg 58%
    22:00 +23°C° 0 mm 2 mps 748 mmHg 62%
    23:00 +23°C° 0 mm 2 mps 748 mmHg 65%
    Show more